Probability
6 6 3 1 0 0 0 0 0 0 0 0 0 1 2 2 1 0 0 0 0 0 0 0 0 0 0 0 0 0 0 0 0 0 0 0 0 0 0 0 0 0 0
5 5 2 0 0 0 0 0 0 0 0 0 0 0 1 1 1 0 0 0 0 0 0 0 0 0 0 0 0 0 0 0 0 0 0 0 0 0 0 0 0 0 0
4 3 1 0 0 0 0 0 0 0 0 0 0 0 0 0 0 0 0 0 0 0 0 0 0 0 0 0 0 0 0 0 0 0 0 0 0 0 0 0 0 0 0
2 2 1 0 0 0 0 0 0 0 0 0 0 0 0 0 0 0 0 0 0 0 0 0 0 0 0 0 0 0 0 0 0 0 0 0 0 0 0 0 0 0 0
0 0 0 0 0 1 1 0 0 0 0 0 0 0 0 0 0 0 0 0 0 0 0 0 0 0 0 0 0 0 0 0 0 0 0 0 0 0 0 0 0 0 0
0 0 0 0 1 2 2 1 0 0 0 0 0 0 0 0 0 0 0 0 1 1 1 0 0 0 0 0 0 0 0 0 0 0 0 0 0 0 0 0 0 0 0
0 0 0 0 1 2 2 1 0 0 0 0 0 0 0 0 0 0 0 0 1 1 1 0 0 0 0 0 0 0 0 0 0 0 0 0 0 0 0 0 0 0 0
0 0 0 0 1 1 1 0 0 0 0 0 0 0 0 0 0 0 0 0 0 0 0 0 0 0 0 0 0 0 0 0 0 0 0 0 0 0 0 0 0 0 0
0 0 0 0 0 0 0 0 0 0 0 0 0 0 0 0 0 0 0 0 0 0 0 0 0 0 0 0 0 0 0 0 0 0 0 0 0 0 0 0 0 0 0
1 1 0 0 0 0 0 0 0 0 0 0 0 0 0 0 0 0 0 0 0 0 0 0 0 0 0 0 0 0 0 0 0 0 0 0 0 0 0 0 0 0 0
0 0 0 0 0 0 0 0 0 0 0 0 0 0 0 0 0 0 0 0 0 0 0 0 0 0 0 0 0 0 0 0 0 0 0 0 0 0 0 0 0 0 0
0 0 0 0 0 0 0 0 0 0 0 0 0 0 0 0 0 0 0 0 0 0 0 0 0 0 0 0 0 0 0 0 0 0 0 0 0 0 0 0 0 0 0
0 0 0 0 0 0 0 0 0 0 0 0 0 0 0 0 0 0 0 0 0 0 0 0 0 0 0 0 0 0 0 0 0 0 0 0 0 0 0 0 0 0 0
0 0 0 0 0 0 0 0 0 0 0 0 0 0 0 0 0 0 0 0 0 0 0 0 0 0 0 0 0 0 0 0 0 0 0 0 0 0 0 0 0 0 0
0 0 0 0 0 0 0 0 0 0 0 0 0 0 0 0 0 0 0 0 0 0 0 0 0 0 0 0 0 0 0 0 0 0 0 0 0 0 0 0 0 0 0
0 0 0 0 0 0 0 0 0 0 0 0 0 0 0 0 0 0 0 0 0 0 0 0 0 0 0 0 0 0 0 0 0 0 0 0 0 0 0 0 0 0 0
0 0 0 0 0 0 0 0 0 0 0 0 0 0 0 0 0 0 0 0 0 0 0 0 0 0 0 0 0 0 0 0 0 0 0 0 0 0 0 0 0 0 0
0 0 0 0 0 0 0 0 0 0 0 0 0 0 0 0 0 0 0 0 0 0 0 0 0 0 0 0 0 0 0 0 0 0 0 0 0 0 0 0 0 0 0
0 0 0 0 0 0 0 0 0 0 0 0 0 0 0 0 0 0 0 0 0 0 0 0 0 0 0 0 0 0 0 0 0 0 0 0 0 0 0 0 0 0 0
0 0 0 0 0 0 0 0 0 0 0 0 0 0 0 0 0 0 0 0 0 0 0 0 0 0 0 0 0 0 0 0 0 0 0 0 0 0 0 0 0 0 0
0 0 0 0 0 0 0 0 0 0 0 0 0 0 0 0 0 0 0 0 0 0 0 0 0 0 0 0 0 0 0 0 0 0 0 0 0 0 0 0 0 0 0
0 0 0 0 0 0 0 0 0 0 0 0 0 0 0 0 0 0 0 0 0 0 0 0 0 0 0 0 0 0 0 0 0 0 0 0 0 0 0 0 0 0 0
0 0 0 0 0 0 0 0 0 0 0 0 0 0 0 0 0 0 0 0 0 0 0 0 0 0 0 0 0 0 0 0 0 0 0 0 0 0 0 0 0 0 0
0 0 0 0 0 0 0 0 0 0 0 0 0 0 0 0 0 0 0 0 0 0 0 0 0 0 0 0 0 0 0 0 0 0 0 0 0 0 0 0 0 0 0
0 0 0 0 0 0 0 0 0 0 0 0 0 0 0 0 0 0 0 0 0 0 0 0 0 0 0 0 0 0 0 0 0 0 0 0 0 0 0 0 0 0 0
0 0 0 0 0 0 0 0 0 0 0 0 0 0 0 0 0 0 0 0 0 0 0 0 0 0 0 0 0 0 0 0 0 0 0 0 0 0 0 0 0 0 0
Wind_Speed
1 2 2 2 3 3 4 4 4 3 3 2 2 2 2 3 3 3 3 3 4 3 2 2 3 3 3 3 4 4 5 3 3 3 2 2 2 2 2 2 3 3 3
0 2 3 3 3 3 3 4 4 4 4 2 2 2 2 2 3 3 3 3 3 3 2 3 3 3 3 3 4 4 3 2 2 2 2 2 1 1 1 2 2 2 2
0 1 3 3 2 2 3 4 4 4 4 3 3 3 2 2 2 2 2 3 4 3 2 2 3 3 3 3 4 4 3 3 1 1 2 3 2 1 0 1 2 2 2
1 1 3 3 3 2 3 4 4 4 5 4 3 3 2 2 2 2 2 3 4 4 3 3 3 2 2 3 3 3 2 3 2 1 1 1 2 3 1 1 1 2 2
1 0 2 3 3 4 3 4 4 4 5 4 4 3 2 3 2 3 4 3 3 3 3 3 3 2 2 3 2 2 2 2 2 1 1 1 1 1 3 2 1 1 1
1 1 2 3 3 4 3 3 4 4 5 4 4 3 3 4 4 4 3 3 2 2 3 3 3 2 2 2 2 2 3 2 2 1 1 1 1 1 1 2 1 1 2
1 1 2 4 4 4 4 4 4 4 4 5 4 3 3 4 4 4 4 3 2 2 2 3 2 2 2 2 2 2 2 2 2 2 1 1 1 1 1 2 1 1 1
1 1 2 3 4 4 4 4 4 3 4 4 4 3 3 3 3 3 3 3 3 3 3 3 3 3 3 2 2 2 2 2 2 2 2 1 1 1 1 2 2 0 1
2 2 2 3 4 4 4 4 4 3 3 4 4 3 3 3 3 3 3 2 3 3 4 3 3 3 3 3 3 2 2 2 2 2 2 1 1 1 1 1 2 2 1
2 2 2 2 3 3 3 3 4 4 3 3 3 3 3 3 3 3 3 3 4 4 4 4 3 3 3 3 3 2 3 3 2 2 3 2 1 1 1 1 1 1 2
2 2 1 2 2 3 3 3 3 3 3 3 2 3 3 3 3 3 3 3 3 4 4 4 4 4 4 3 3 3 3 3 3 2 3 3 2 2 1 1 1 1 1
2 2 2 2 2 2 2 3 3 3 3 3 3 2 3 3 3 3 4 4 4 4 4 4 4 4 4 4 4 4 4 4 4 4 3 3 3 3 2 2 2 2 2
2 2 2 2 1 2 1 2 2 2 3 3 3 3 2 3 3 3 3 4 4 4 4 4 4 4 4 4 4 4 4 4 4 4 5 4 4 4 3 3 3 2 2
2 2 2 1 1 1 1 1 1 1 1 2 2 3 3 3 3 2 3 3 4 4 4 4 4 4 4 4 4 4 4 4 4 4 4 4 5 5 5 4 4 3 2
2 2 1 1 1 1 0 0 1 1 1 1 2 2 2 2 2 2 2 3 3 3 3 3 4 4 4 4 5 4 4 4 4 4 4 4 5 6 5 4 4 3 3
2 2 2 1 1 0 0 0 1 1 2 2 2 2 2 2 2 2 2 2 2 2 3 3 3 4 3 6 8 6 4 4 5 4 4 4 5 6 8 7 7 6 5
1 1 1 1 1 0 0 1 1 1 1 2 2 1 2 2 2 2 2 2 2 2 3 3 3 3 4 7 7 7 4 4 4 4 4 4 4 6 4 6 7 7 8
1 1 1 1 1 1 1 1 1 0 0 1 1 1 1 1 1 2 3 3 2 3 3 3 3 3 4 6 8 8 5 4 4 5 5 5 4 5 5 5 4 5 5
1 1 1 1 1 1 1 1 1 1 1 1 1 1 1 2 2 2 3 3 3 3 3 3 3 3 4 7 8 8 4 4 5 5 5 5 5 8 8 5 5 5 5
2 2 2 2 1 1 1 2 1 1 1 1 1 1 1 2 3 3 3 2 2 3 3 3 3 4 4 6 8 8 4 4 4 4 4 7 7 8 9 6 5 6 5
2 2 2 2 1 2 2 1 1 1 2 1 1 1 1 2 2 2 2 2 2 2 2 3 3 3 4 5 7 8 4 5 4 4 3 4 8 9 9 7 5 7 5
2 2 2 2 2 2 2 2 2 2 2 1 2 2 2 2 2 1 1 1 2 2 3 2 3 2 3 4 5 8 8 6 4 4 3 4 7 8 9 7 7 8 5
2 2 2 2 3 2 2 2 3 2 2 2 2 2 2 2 1 1 2 2 2 2 2 2 3 3 2 3 6 8 9 8 4 3 5 6 7 7 6 7 8 6 3
1 2 2 2 2 2 2 2 3 3 2 2 2 2 2 2 2 1 1 2 2 2 2 2 3 3 2 2 2 3 4 5 4 3 4 6 6 5 5 5 5 3 4
2 2 1 1 2 3 2 3 3 3 3 3 3 3 2 2 2 2 2 2 2 3 3 3 3 3 4 4 5 3 3 3 3 2 1 1 2 2 2 2 3 3 3
1 1 2 2 2 3 3 3 3 2 2 2 3 2 2 2 2 2 3 3 4 5 6 6 5 4 6 7 7 7 7 7 6 3 3 3 3 4 4 4 3 3 3
Wind_Direction
96 112 108 100 102 103 114 112 103 98 97 104 109 106 110 102 91 79 72 79 86 87 103 113 113 119 128 129 123 115 109 104 103 93 84 66 71 89 95 94 99 97 90
26 119 117 105 104 104 112 118 115 112 105 97 102 102 108 105 102 95 83 80 79 81 99 117 116 115 124 126 122 118 118 122 120 124 129 117 27 347 115 112 114 118 108
312 140 123 116 111 117 130 129 133 126 112 114 102 91 84 88 86 92 90 86 87 79 78 97 112 117 123 135 137 133 127 144 151 109 130 145 172 176 232 161 140 139 128
18 162 145 140 141 138 132 125 127 123 123 124 124 120 125 127 131 130 116 101 95 90 81 82 90 108 116 124 136 125 126 133 148 120 79 107 129 139 149 272 202 159 154
15 72 145 147 139 132 131 127 130 132 131 136 142 146 157 132 122 115 113 104 98 100 97 90 89 97 110 120 126 122 120 126 141 144 137 90 68 108 140 187 230 252 219
40 73 117 128 129 131 136 138 140 144 145 147 148 164 160 140 135 134 132 129 121 111 116 115 110 110 108 119 135 139 136 133 136 140 138 145 143 162 148 170 192 218 238
65 93 134 141 141 143 150 149 148 153 156 153 154 175 172 157 159 155 154 151 148 143 148 132 133 129 122 123 128 135 145 146 143 150 151 132 118 121 121 126 166 201 241
79 100 127 142 144 148 150 149 158 164 162 158 160 173 172 164 170 169 161 160 155 154 149 147 144 139 137 140 135 128 145 142 143 145 134 118 104 91 110 135 137 153 279
93 102 112 128 140 151 156 160 164 170 172 168 161 160 169 169 168 162 150 149 150 150 153 157 153 152 153 157 157 158 159 149 148 153 147 138 133 115 104 107 134 155 211
85 84 101 116 132 142 150 153 163 171 174 166 163 162 175 175 164 156 162 166 162 155 156 161 163 165 165 166 166 165 162 152 153 154 151 153 148 138 129 140 144 147 174
100 96 97 112 121 124 136 147 159 164 166 166 170 168 172 175 162 163 172 169 164 161 165 171 170 172 171 169 169 173 167 166 165 166 167 176 164 156 166 164 165 180 170
109 103 103 95 108 120 143 154 165 174 176 175 168 175 172 171 175 180 182 174 169 168 170 170 172 178 178 177 178 183 180 182 181 183 178 185 175 179 181 175 192 208 207
99 105 104 103 112 132 146 148 163 176 173 168 164 176 179 182 194 189 180 173 172 173 172 171 179 186 184 184 187 186 188 193 192 190 191 192 183 197 195 191 199 208 216
87 97 104 103 91 139 152 151 156 151 161 161 170 189 195 196 203 195 183 178 177 178 180 184 186 188 186 188 189 190 190 194 199 198 197 198 197 200 197 201 207 203 207
84 77 75 88 79 44 61 137 149 138 150 164 195 210 205 191 194 195 192 184 181 184 183 185 189 189 190 193 188 190 192 196 204 205 206 209 207 204 202 204 202 197 203
72 59 43 38 47 21 337 15 167 173 170 187 211 205 187 191 200 206 198 186 183 181 183 196 195 198 207 204 197 191 195 200 204 211 214 214 212 216 222 224 218 208 206
62 58 38 19 354 314 277 249 227 192 175 192 207 200 187 194 204 206 205 207 201 191 196 203 200 209 216 210 208 206 201 206 210 211 211 215 214 214 214 228 234 236 237
59 47 44 18 351 356 353 2 57 85 167 191 202 204 213 224 219 201 211 215 207 205 209 207 208 213 224 221 218 214 211 216 219 216 212 214 215 210 205 210 221 232 240
61 50 56 40 33 25 25 61 54 48 38 348 295 251 227 236 243 234 226 219 210 218 214 208 213 218 229 224 222 214 205 219 228 224 217 213 215 221 215 210 219 235 248
50 42 35 34 42 16 48 69 50 35 337 303 291 282 246 233 242 244 236 225 217 222 218 218 217 218 224 224 222 212 204 217 228 228 224 222 222 227 221 213 212 229 239
47 41 40 39 16 14 43 43 12 320 305 329 337 318 292 265 260 258 243 222 226 228 226 224 224 221 227 227 224 216 208 211 218 223 224 227 230 232 229 224 218 232 241
44 38 36 25 14 21 36 18 339 320 331 334 324 314 307 300 296 266 259 238 225 230 234 232 242 237 234 227 230 227 224 221 216 223 221 224 232 236 237 235 238 244 246
39 32 29 18 14 14 23 356 326 334 340 336 324 317 315 310 297 268 252 246 230 229 234 228 242 252 241 240 239 237 235 233 227 226 229 234 239 243 240 237 240 237 218
41 31 28 17 359 359 1 337 330 342 344 330 323 322 320 319 313 301 268 247 235 230 234 236 244 251 248 240 238 235 238 238 239 236 235 240 240 238 236 237 232 216 206
30 33 24 356 339 344 345 342 345 345 335 324 325 326 322 312 306 300 285 272 258 240 242 241 236 239 250 248 244 239 235 227 230 227 215 219 224 221 223 222 220 209 206
14 15 3 348 335 337 336 337 336 334 324 321 321 317 313 311 305 302 308 290 269 278 269 261 259 260 260 265 253 250 254 253 245 236 219 223 222 224 223 221 219 215 215